Regional Weather Roundup
Issued by NWS

Home | Current Version | Previous Version | Text Only | Print | Product List | Glossary Off
Versions: 1 2 3 4 5 6 7 8 9 10 11 12 13 14 15 16 17 18 19 20 21 22 23 24 25 26 27 28 29 30 31 32 33 34 35 36 37 38 39 40 41 42 43 44 45 46 47 48 49 50

000
ASUS43 KLOT 020810
RWRIL

ILLINOIS REGIONAL WEATHER ROUNDUP
NATIONAL WEATHER SERVICE CHICAGO/ROMEOVILLE IL
300 AM CDT SAT AUG 02 2014

NOTE: "FAIR" INDICATES FEW OR NO CLOUDS BELOW 12,000 FEET WITH NO
SIGNIFICANT WEATHER AND/OR OBSTRUCTIONS TO VISIBILITY.

* THESE STATIONS ARE NOT UNDER NWS QUALITY CONTROL. THEY ALSO MAY NOT
  REPORT WEATHER SUCH AS PRECIPITATION OR FOG.

ILZ001-002-007-009-015-016-024-020900-
NORTHWEST ILLINOIS

CITY           SKY/WX    TMP DP  RH WIND       PRES   REMARKS
MOLINE         CLEAR     61  59  93 CALM      30.10R FOG
STERLING*      CLEAR     61  57  88 CALM      30.11R
SAVANNA*       CLEAR     60  57  90 CALM      30.11R
$$

ILZ003-004-008-010-011-017-018-020900-
NORTH CENTRAL ILLINOIS

CITY           SKY/WX    TMP DP  RH WIND       PRES   REMARKS
ROCKFORD       PTCLDY    60  56  86 NE3       30.12R
FREEPORT*      CLEAR     55  53  94 W3        30.13R FOG
ROCHELLE*      CLEAR     56  55  95 S3        30.11R
DE KALB*       CLEAR     56  54  95 CALM      30.12R
PERU*          CLEAR     59  56  88 W5        30.11R
$$

ILZ005-006-012>014-019>023-020900-
NORTHEAST ILLINOIS

CITY           SKY/WX    TMP DP  RH WIND       PRES   REMARKS
CHICAGO-OHARE  PTCLDY    63  54  72 CALM      30.09R
CHICAGO-MIDWAY PTCLDY    64  59  83 W6        30.08S
AURORA         CLEAR     57  53  86 CALM      30.11R
LANSING*       CLEAR     60  59  94 CALM      30.09S
JOLIET*        CLEAR     60  57  88 CALM      30.11R
WAUKEGAN       CLEAR     56  54  93 CALM      30.10R
DUPAGE AIRPORT CLEAR     58  54  86 CALM      30.10R
KANKAKEE*      CLEAR     57  57  99 CALM      30.09S FOG
WHEELING       CLEAR     61  56  83 CALM      30.11R
MORRIS*        CLEAR     60  58  94 CALM      30.09S
ROMEOVILLE*    CLEAR     60  58  91 NW6       30.10S
NORTHERLY ISL    N/A     66  59  78 S2          N/A
$$

LMZ740>746-020900-
SOUTHERN LAKE MICHIGAN

STATION/POSITION SKY/WX   TEMP    WIND        PRES    VSBY  WAVE
                          AIR SEA DIR/SP/G                  HT/PER
                          (F)     (DEG/KT/KT) (MB)    (MI)  (FT/S)
SOUTHERN BUOY              64 64   30/  4/  4 1018.6F         1
WAUKEGAN HARBOR            63     360/  3/  5   N/A
HARRISON CRIB              67     180/  8/  9   N/A
BURNHAM HARBOR             65     320/  3/  3   N/A
CALUMET HARBOR             64      CALM  /  1 1017.3F
MICHIGAN CITY              64     140/  4/  5   N/A
MICHIGAN CITY 6N           67 69  180/  6/  8   N/A           0
ST. JOSEPH                 65 70  120/  6/  8   N/A           0
$$

ILZ025>027-034>036-040-047-049-050-058-095>099-020900-
WEST-CENTRAL ILLINOIS

CITY           SKY/WX    TMP DP  RH WIND       PRES   REMARKS
QUINCY         CLEAR     62  60  93 SW6       30.09F FOG
GALESBURG*     CLEAR     59  58  98 SE3       30.11S
MACOMB*        CLEAR     55  54  99 CALM      30.11F
JACKSONVILLE*  CLEAR     60  59  96 CALM      30.11S
PITTSFIELD*    CLEAR     63  60  91 CALM      30.11S
$$

ILZ028>032-037-038-041>044-048-051>054-059>061-020900-
CENTRAL ILLINOIS

CITY           SKY/WX    TMP DP  RH WIND       PRES   REMARKS
PONTIAC        MOCLDY    59  59 100 CALM      30.10R FOG
DECATUR        CLEAR     58  56  93 CALM      30.10S FOG
PEORIA         PTCLDY    63  60  90 CALM      30.10R FOG
LACON*         PTCLDY    57  56  94 CALM      30.10R
LINCOLN*       PTCLDY    58  57  95 CALM      30.08R
SPRINGFIELD    PTCLDY    61  59  93 SW3       30.10S
TAYLORVILLE    FOG       55  55 100 W3        30.10S VSB 1/4
$$

ILZ033-039-045-046-055>057-062-063-020900-
EAST-CENTRAL ILLINOIS

CITY           SKY/WX    TMP DP  RH WIND       PRES   REMARKS
CHAMPAIGN      CLEAR     59  58  96 N5        30.09S
DANVILLE*      PTCLDY    60  59  98 N6        30.07R FOG
RANTOUL*       CLEAR     60  56  87 CALM      30.10S
MATTOON          N/A     60  59  96 W3        30.08F FOG
PARIS*         PTCLDY    61  60  97 CALM      30.08S FOG
$$

ILZ079-100>102-020900-
SOUTHWEST ILLINOIS

CITY           SKY/WX    TMP DP  RH WIND       PRES   REMARKS
ALTON          CLEAR     60  60 100 CALM      30.10S
BELLEVILLE     CLEAR     63  63 100 VRB3      30.08S
CAHOKIA*       CLEAR     61  60  97 CALM      30.08S FOG
SPARTA*        PTCLDY    61  61 100 NE6       30.09R FOG
$$

ILZ064>066-069>071-074>076-080>082-084>086-088>090-092>094-020900-
SOUTH-CENTRAL ILLINOIS

CITY           SKY/WX    TMP DP  RH WIND       PRES   REMARKS
CARBONDALE     MOCLDY    65  63  93 N3        30.08S
CAIRO*         PTCLDY    69  65  86 CALM      30.05F
EFFINGHAM*     RAIN      59  57  91 CALM      30.08F
MARION         CLOUDY    66  64  94 CALM      30.08S
MT. VERNON     PTCLDY    63  57  82 CALM      30.08S
CENTRALIA*     CLEAR     60  58  94 N3        30.08S FOG
SALEM*         CLEAR     62  61  96 CALM      30.08S
METROPOLIS*    MOCLDY    70  61  73 CALM      30.05S
$$

ILZ067-068-072-073-078-083-087-091-020900-
SOUTHEAST ILLINOIS

CITY           SKY/WX    TMP DP  RH WIND       PRES   REMARKS
LAWRENCEVILLE  CLOUDY    68  64  87 CALM      30.08R
FAIRFIELD*     MOCLDY    64  64 100 CALM      30.07R
HARRISBURG*    MOCLDY    66  65  97 CALM      30.07F
ROBINSON*      MOCLDY    66  65  94 CALM      30.08S
CARMI*         MOCLDY    66  64  94 N6        30.06S
$$

ABBREVIATIONS USED IN REMARKS
   TC - TEMPERATURE IN CELSIUS
  WCI - WIND CHILL INDEX
   HX - HEAT INDEX
  VSB - VISIBILITY
$$



USA.gov is the U.S. government's official web portal to all federal, state and local government web resources and services.